Terug naar catalogus

STARLINK-37600

ActiefCommunicatieVLEO
NORAD 69359·PAYLOAD·🇺🇸 United States

Gelanceerd Jun 4, 2026 vanaf Cape Canaveral Space Force Station

Loading…

Volgende Passages (komende 24 uur)

TLE

VersSource: CelesTrak SupGP

Epoch: Sep 15, 2026, 04:28 UTC

1 69359C 26123G   26258.18659722  .00038339  00000+0  11329-2 0  2580
2 69359  53.1590 166.7997 0001323  76.8129 196.4211 15.34366362    18

Volg STARLINK-37600 in realtime met AllMySat

Download on the App Store